This is the latest recevied weather packets stored in our database for station/object W4TTU-1. If no packets are shown the sender has not sent any weather packets the latest 10 day(s).
| Time | Temp. | Humidity | Pressure | Rain* | Wind** | Luminosity | Snow |
|---|---|---|---|---|---|---|---|
| 1777901537 | 6.67° C | 31% | 845 hPa | 0 mm | - | - | - |
| 1777900638 | 6.67° C | 30% | 844.8 hPa | 0 mm | - | - | - |
| 1777899736 | 6.67° C | 30% | 844.5 hPa | 0 mm | - | - | - |
| 1777895234 | 6.11° C | 29% | 843.3 hPa | 0 mm | - | - | - |
| 1777894333 | 5.56° C | 28% | 843.2 hPa | 0 mm | - | - | - |
| 1777893433 | 5.56° C | 28% | 842.7 hPa | 0 mm | - | - | - |
| 1777892532 | 5.56° C | 28% | 842.5 hPa | 0 mm | - | - | - |
| 1777890731 | 6.11° C | 28% | 841.2 hPa | 0 mm | - | - | - |
| 1777888930 | 6.67° C | 27% | 841 hPa | 0 mm | - | - | - |
| 1777888032 | 6.67° C | 28% | 841.1 hPa | 0 mm | - | - | - |
| 1777887129 | 7.22° C | 27% | 841.1 hPa | 0 mm | - | - | - |
| 1777886232 | 7.78° C | 28% | 841.1 hPa | 0 mm | - | - | - |
| 1777885328 | 8.33° C | 27% | 841.1 hPa | 0 mm | - | - | - |
| 1777883528 | 8.89° C | 27% | 841.1 hPa | 0 mm | - | - | - |
| 1777882631 | 9.44° C | 27% | 841.1 hPa | 0 mm | - | - | - |
| 1777881726 | 10° C | 27% | 841.2 hPa | 0 mm | - | - | - |
| 1777878124 | 11.11° C | 27% | 841.3 hPa | 0 mm | - | - | - |
| 1777875424 | 11.67° C | 27% | 841.4 hPa | 0 mm | - | - | - |
| 1777874522 | 12.22° C | 27% | 841.2 hPa | 0 mm | - | - | - |
| 1777873623 | 12.78° C | 26% | 841.3 hPa | 0 mm | - | - | - |
| 1777872720 | 13.33° C | 26% | 841.2 hPa | 0 mm | - | - | - |
| 1777871822 | 14.44° C | 26% | 841.2 hPa | 0 mm | - | - | - |
| 1777870919 | 15° C | 26% | 841.3 hPa | 0 mm | - | - | - |
| 1777870021 | 16.11° C | 25% | 841.3 hPa | 0 mm | - | - | - |
| 1777869118 | 17.22° C | 25% | 841.3 hPa | 0 mm | - | - | - |
* Rain since midnight (hover to see other rain measurements)
** Current wind speed in m/s (hover to see current wind gust speed)